Location: Unspecified
(51.0000°N, 12.0000°E)
Time: 18:16:45
(UTC+02:00)

ISS - Pass Details

Date: 16 March 2018
Orbit: 403 x 408 km, 51.6° (Epoch: 20 September)

Event Time Altitude Azimuth Distance (km) Brightness Sun altitude
Exits shadow 05:12:55 21° 257° (WSW) 1,006 -2.5 -12.0°
Maximum altitude 05:14:27 31° 211° (SSW) 754 -2.8 -11.7°
Drops below altitude 10° 05:17:26 10° 147° (SSE) 1,478 -0.7 -11.3°
Sets 05:19:38 0° 137° (SE) 2,333 0.5 -10.9°
